DELTA 1 DEB, 7023

Orbit data source: Space-Track

DELTA 1 DEB, 7023 is space debris in SSO originally from a launch on Tue, 06 Nov 1973 UTC launched from the Air Force Western Test Range (AFWTR). Debris objects in space refer to the collection of defunct objects orbiting the Earth. Examples of debris include non-operational satellites, rocket bodies, and fragments generated from explosions, collisions, or faulty payload assembly.

Loading next visibility...
Identifier
7023, 1973-086P
Orbit
SSO
Country
Flag of USUS
Related business
Manufacturer
Unknown
Mission
Spacecraft
Bus & Motor
Unknown
Mass
Unknown
Launch date (UTC)
1973-11-06 (53 years ago)
Launch vehicle
Unknown
Launch site
Air Force Western Test Range (AFWTR)
Object type
Payload
Rocket body
Debris
Shape & HBR
Unknown shape, 0.1 m
Radar Cross Section
Medium (>0.1 m² and <1 m²)

Expand to show TLE details & history
Last TLE update: 1 day ago

TLE from 1 day ago
0 DELTA 1 DEB
1 07023U 73086P   26205.90510161  .00000020  00000-0  51572-3 0  9999
2 07023 102.3472 181.0754 0028359 312.4582  75.0054 12.36373029377072
Epoch: 2026-07-24T21:43Z
TLE epoch observation values (Epoch: 2026-07-24T21:43:20.779Z)
Latitude
27.11976°
Longitude
-93.7917°
Altitude
1,519.258 km
Speed
7.111 km/s
True Right ascension
11h 38m 40s
True Declination
26° 59' 38"
Sunlit
Object was in daylight at epoch
Visualization orbit readout
Latitude
Unknown
Longitude
Unknown
Altitude
Unknown
Speed
Unknown
Apparent Right ascension
Unknown
Apparent Declination
Unknown
Sunlit
N/A
Visualization observer readout
Local Sidereal Time
22:23:00
Azimuth
Unknown
Elevation
Unknown
Doppler factor
Unknown
Orbital elements
Apogee altitude
1,542.013 km
Perigee altitude
1,497.219 km
Semi-major axis
7,897.753 km
Eccentricity
0.00284
Inclination
102.3472°
RAAN
181.0754°
Arg. of periapsis
312.4582°
True anomaly
75.31959°
Mean anomaly
75.0054°
Eccentric anomaly
75.16247°
Mean motion
3.09234 °/min
Orbital period
116.42 mins
BSTAR
0.00051572
Loading maneuver chart data...
Computing Atmospheric mass density...
Loading historical data...
Loading historical data...
Loading historical data...
Loading historical data...
Loading historical data...
Loading historical data...
Loading historical data...

Documentation

Showing up to 5 results
|